Regional Weather Roundup
Issued by NWS

Home | Current Version | Previous Version | Graphics & Text | Print | Product List | Glossary On
Versions: 1 2 3 4 5 6 7 8 9 10 11 12 13 14 15 16 17 18 19 20 21 22 23 24 25 26 27 28 29 30 31 32 33 34 35 36 37 38 39 40 41 42 43 44 45 46 47 48 49 50
989
ASUS44 KMEG 051500
RWRTN
TENNESSEE HOURLY STATE WEATHER ROUNDUP
NATIONAL WEATHER SERVICE MEMPHIS TN
900 AM CST MON DEC 05 2016

TNZ002-004-019-021-049-052-054-088>092-051600-
WEST TENNESSEE

CITY           SKY/WX    TMP DP  RH WIND       PRES   REMARKS
MEMPHIS INTL   CLOUDY    43  40  89 E12       29.99F
NWS MEMPHIS      N/A     42 N/A N/A MISG        N/A
JACKSON        CLOUDY    43  39  86 E6        30.05R
DYERSBURG      CLOUDY   N/A N/A N/A SE6       30.04R
UNION CITY     CLOUDY    39  36  87 E6        30.04S WCI  35
PARIS          CLOUDY    37  34  87 E10       30.05R WCI  30
LEXINGTON      CLOUDY    43  39  87 E6        30.05R
$$

TNZ008-025-027-028-033-062-065-066-051600-
NORTH MIDDLE TENNESSEE

CITY           SKY/WX    TMP DP  RH WIND       PRES   REMARKS
NASHVILLE      CLOUDY    43  40  89 NE10      30.07S FOG
CLARKSVILLE    CLOUDY    40  35  83 E8        30.08R WCI  34
SMYRNA         CLOUDY    43  42  97 NE9       30.08R FOG
CROSSVILLE     CLOUDY    44  42  93 NE8       30.03S
$$

TNZ061-075-076-078-094-096-097-051600-
SOUTH MIDDLE TENNESSEE

CITY           SKY/WX    TMP DP  RH WIND       PRES   REMARKS
TULLAHOMA      CLOUDY    45  45 100 NE5       30.03S
WINCHESTER     CLOUDY    46  45  93 N7        30.03S
MCMINNVILLE    PTSUNNY   46  46 100 NE5       30.04R
COLUMBIA       CLOUDY   N/A N/A N/A NE6       30.03R
SHELBYVILLE    CLOUDY    46  46 100 NE6       30.05R
$$

TNZ017-018-042-046-047-051600-
NORTHEAST TENNESSEE

CITY           SKY/WX    TMP DP  RH WIND       PRES   REMARKS
TRI CITIES     CLOUDY    49  46  90 NE3       30.06R
$$

TNZ012-013-036-069-073-074-051600-
CENTRAL EAST TENNESSEE

CITY           SKY/WX    TMP DP  RH WIND       PRES   REMARKS
KNOXVILLE      DRIZZLE   48  46  93 NE7       30.04R FOG
OAK RIDGE      CLOUDY    50  47  89 NE6       30.06R
GATLINBURG     CLOUDY    46  46 100 E3        30.05R
$$

TNZ083-085-099-051600-
SOUTHEAST TENNESSEE

CITY           SKY/WX    TMP DP  RH WIND       PRES   REMARKS
CHATTANOOGA    CLOUDY    50  45  83 NE6       30.04S FOG
$$

SKY/WX REPORTED AS FAIR MEANS FEW OR NO CLOUDS BELOW
12 THOUSAND FEET.





USA.gov is the U.S. government's official web portal to all federal, state and local government web resources and services.